• In Netherlands
  • List of Countries
  • For 7 days
  • Water Temperature
  • Satellite Maps
  • Weather Map
  • Weather Widgets
  • user-avatar
    Login

    Hourly Weather Yerevan

    Today, 29 April, Saturday

    Time Temperature Precipitation Wind Pressure Humidity
    00:00 +12°C° 0 mm 1 mps 692 mmHg 74%
    01:00 +12°C° 0.1 mm 1 mps 691 mmHg 76%
    02:00 +12°C° 0.1 mm 1 mps 691 mmHg 77%
    03:00 +12°C° 0 mm 1 mps 690 mmHg 82%
    04:00 +12°C° 0.2 mm 1 mps 690 mmHg 81%
    05:00 +12°C° 0.2 mm 1 mps 690 mmHg 79%
    06:00 +13°C° 0.2 mm 1 mps 690 mmHg 78%
    07:00 +15°C° 0.2 mm 1 mps 690 mmHg 69%
    08:00 +18°C° 0.2 mm 1 mps 691 mmHg 61%
    09:00 +20°C° 0.2 mm 1 mps 691 mmHg 53%
    10:00 +21°C° 0.3 mm 1 mps 690 mmHg 49%
    11:00 +22°C° 0.3 mm 1 mps 690 mmHg 46%
    12:00 +23°C° 0.3 mm 2 mps 690 mmHg 42%
    13:00 +24°C° 0.5 mm 2 mps 690 mmHg 41%
    14:00 +24°C° 0.5 mm 2 mps 690 mmHg 41%
    15:00 +24°C° 0.5 mm 2 mps 689 mmHg 40%
    16:00 +23°C° 0.4 mm 1 mps 689 mmHg 43%
    17:00 +22°C° 0.4 mm 1 mps 689 mmHg 47%
    18:00 +21°C° 0.4 mm 1 mps 689 mmHg 50%
    19:00 +20°C° 0.5 mm 1 mps 689 mmHg 55%
    20:00 +18°C° 0.5 mm 1 mps 689 mmHg 61%
    21:00 +16°C° 0.5 mm 2 mps 689 mmHg 66%
    22:00 +15°C° 0.3 mm 2 mps 689 mmHg 68%
    23:00 +15°C° 0.3 mm 1 mps 689 mmHg 70%

    Tomorrow, 30 April, Sunday

    Time Temperature Precipitation Wind Pressure Humidity
    00:00 +14°C° 0.3 mm 1 mps 689 mmHg 72%
    01:00 +14°C° 0.2 mm 1 mps 689 mmHg 74%
    02:00 +13°C° 0.2 mm 1 mps 689 mmHg 75%
    03:00 +13°C° 0.2 mm 1 mps 689 mmHg 77%
    04:00 +13°C° 0.1 mm 1 mps 689 mmHg 76%
    05:00 +13°C° 0.1 mm 1 mps 689 mmHg 75%
    06:00 +13°C° 0.1 mm 1 mps 689 mmHg 74%
    07:00 +15°C° 0 mm 1 mps 690 mmHg 64%
    08:00 +19°C° 0 mm 1 mps 690 mmHg 54%
    09:00 +21°C° 0 mm 1 mps 690 mmHg 44%
    10:00 +21°C° 0.1 mm 2 mps 690 mmHg 40%
    11:00 +23°C° 0.1 mm 2 mps 690 mmHg 37%
    12:00 +25°C° 0.1 mm 2 mps 690 mmHg 33%
    13:00 +25°C° 0.1 mm 2 mps 690 mmHg 33%
    14:00 +25°C° 0.1 mm 2 mps 690 mmHg 32%
    15:00 +25°C° 0.1 mm 2 mps 689 mmHg 32%
    16:00 +24°C° 0.2 mm 2 mps 689 mmHg 35%
    17:00 +23°C° 0.2 mm 2 mps 689 mmHg 39%
    18:00 +21°C° 0.2 mm 2 mps 689 mmHg 43%
    19:00 +19°C° 0.1 mm 2 mps 689 mmHg 47%
    20:00 +18°C° 0.1 mm 1 mps 689 mmHg 52%
    21:00 +15°C° 0.1 mm 1 mps 689 mmHg 56%
    22:00 +14°C° 0.1 mm 1 mps 689 mmHg 58%
    23:00 +14°C° 0.1 mm 1 mps 689 mmHg 59%

    Day after tomorrow, 1 May, Monday

    Time Temperature Precipitation Wind Pressure Humidity
    00:00 +13°C° 0.1 mm 1 mps 689 mmHg 61%
    01:00 +13°C° 0 mm 1 mps 689 mmHg 61%
    02:00 +12°C° 0 mm 1 mps 689 mmHg 61%
    03:00 +12°C° 0 mm 1 mps 689 mmHg 62%
    04:00 +13°C° 0 mm 1 mps 689 mmHg 60%
    05:00 +13°C° 0 mm 1 mps 689 mmHg 58%
    06:00 +14°C° 0 mm 1 mps 689 mmHg 56%
    07:00 +16°C° 0 mm 1 mps 690 mmHg 49%
    08:00 +20°C° 0 mm 1 mps 690 mmHg 42%
    09:00 +22°C° 0 mm 1 mps 691 mmHg 35%
    10:00 +24°C° 0 mm 2 mps 691 mmHg 32%
    11:00 +25°C° 0 mm 2 mps 691 mmHg 29%
    12:00 +26°C° 0 mm 2 mps 691 mmHg 26%
    13:00 +27°C° 0 mm 2 mps 690 mmHg 26%
    14:00 +27°C° 0 mm 2 mps 690 mmHg 25%
    15:00 +27°C° 0 mm 2 mps 690 mmHg 24%
    16:00 +26°C° 0 mm 2 mps 690 mmHg 29%
    17:00 +25°C° 0 mm 2 mps 689 mmHg 34%
    18:00 +23°C° 0 mm 1 mps 689 mmHg 39%
    19:00 +22°C° 0 mm 1 mps 689 mmHg 42%
    20:00 +20°C° 0 mm 1 mps 689 mmHg 45%
    21:00 +17°C° 0 mm 2 mps 689 mmHg 49%
    22:00 +18°C° 0 mm 1 mps 689 mmHg 51%
    23:00 +16°C° 0 mm 1 mps 689 mmHg 54%

    2 May, Tuesday

    Time Temperature Precipitation Wind Pressure Humidity
    00:00 +16°C° 0 mm 1 mps 689 mmHg 57%
    01:00 +16°C° 0 mm 1 mps 689 mmHg 58%
    02:00 +15°C° 0 mm 1 mps 689 mmHg 59%
    03:00 +15°C° 0 mm 1 mps 689 mmHg 60%
    04:00 +15°C° 0 mm 1 mps 689 mmHg 60%
    05:00 +16°C° 0 mm 2 mps 689 mmHg 60%
    06:00 +16°C° 0 mm 2 mps 689 mmHg 60%
    07:00 +18°C° 0 mm 2 mps 689 mmHg 52%
    08:00 +20°C° 0 mm 2 mps 689 mmHg 45%
    09:00 +23°C° 0 mm 2 mps 689 mmHg 37%
    10:00 +24°C° 0.2 mm 2 mps 689 mmHg 38%
    11:00 +24°C° 0.2 mm 2 mps 689 mmHg 39%
    12:00 +24°C° 0.2 mm 3 mps 689 mmHg 40%
    13:00 +24°C° 0.4 mm 2 mps 689 mmHg 43%
    14:00 +24°C° 0.4 mm 2 mps 689 mmHg 46%
    15:00 +23°C° 0.4 mm 2 mps 688 mmHg 49%
    16:00 +23°C° 0.4 mm 1 mps 688 mmHg 51%
    17:00 +22°C° 0.4 mm 1 mps 688 mmHg 53%
    18:00 +22°C° 0.4 mm 1 mps 688 mmHg 56%
    19:00 +20°C° 0.3 mm 1 mps 688 mmHg 61%
    20:00 +19°C° 0.3 mm 1 mps 688 mmHg 66%
    21:00 +16°C° 0.3 mm 1 mps 688 mmHg 71%
    22:00 +16°C° 0.2 mm 1 mps 688 mmHg 72%
    23:00 +16°C° 0.2 mm 1 mps 688 mmHg 74%

    3 May, Wednesday

    Time Temperature Precipitation Wind Pressure Humidity
    00:00 +16°C° 0.2 mm 1 mps 688 mmHg 75%
    01:00 +15°C° 0.1 mm 1 mps 687 mmHg 76%
    02:00 +14°C° 0.1 mm 1 mps 687 mmHg 77%
    03:00 +14°C° 0.1 mm 1 mps 687 mmHg 78%
    04:00 +14°C° 0 mm 1 mps 687 mmHg 76%
    05:00 +15°C° 0 mm 1 mps 687 mmHg 74%
    06:00 +14°C° 0 mm 0 mps 687 mmHg 72%
    07:00 +18°C° 0.1 mm 1 mps 687 mmHg 65%
    08:00 +20°C° 0.1 mm 1 mps 687 mmHg 58%
    09:00 +22°C° 0.1 mm 1 mps 688 mmHg 51%
    10:00 +23°C° 0.2 mm 1 mps 687 mmHg 49%
    11:00 +24°C° 0.2 mm 1 mps 687 mmHg 46%
    12:00 +24°C° 0.2 mm 1 mps 687 mmHg 44%
    13:00 +25°C° 0.5 mm 1 mps 687 mmHg 44%
    14:00 +25°C° 0.5 mm 2 mps 687 mmHg 44%
    15:00 +25°C° 0.5 mm 2 mps 687 mmHg 44%
    16:00 +24°C° 0.6 mm 2 mps 687 mmHg 47%
    17:00 +23°C° 0.6 mm 2 mps 687 mmHg 51%
    18:00 +21°C° 0.6 mm 2 mps 687 mmHg 54%
    19:00 +19°C° 0.2 mm 2 mps 687 mmHg 58%
    20:00 +18°C° 0.2 mm 2 mps 687 mmHg 61%
    21:00 +16°C° 0.2 mm 1 mps 687 mmHg 65%
    22:00 +16°C° 0 mm 1 mps 687 mmHg 67%
    23:00 +15°C° 0 mm 1 mps 687 mmHg 68%

    4 May, Thursday

    Time Temperature Precipitation Wind Pressure Humidity
    00:00 +15°C° 0 mm 1 mps 687 mmHg 69%
    01:00 +14°C° 0 mm 1 mps 687 mmHg 70%
    02:00 +14°C° 0 mm 1 mps 686 mmHg 70%
    03:00 +13°C° 0 mm 1 mps 686 mmHg 71%
    04:00 +14°C° 0 mm 1 mps 686 mmHg 69%
    05:00 +14°C° 0 mm 1 mps 686 mmHg 68%
    06:00 +14°C° 0 mm 1 mps 687 mmHg 66%
    07:00 +16°C° 0 mm 1 mps 687 mmHg 59%
    08:00 +19°C° 0 mm 1 mps 687 mmHg 53%
    09:00 +21°C° 0 mm 1 mps 687 mmHg 46%
    10:00 +22°C° 0.1 mm 1 mps 687 mmHg 43%
    11:00 +24°C° 0.1 mm 1 mps 687 mmHg 40%
    12:00 +25°C° 0.1 mm 1 mps 687 mmHg 37%
    13:00 +25°C° 0.2 mm 1 mps 687 mmHg 37%
    14:00 +25°C° 0.2 mm 1 mps 687 mmHg 36%
    15:00 +25°C° 0.2 mm 1 mps 686 mmHg 36%
    16:00 +24°C° 0.3 mm 1 mps 686 mmHg 40%
    17:00 +23°C° 0.3 mm 1 mps 686 mmHg 44%
    18:00 +22°C° 0.3 mm 1 mps 686 mmHg 48%
    19:00 +21°C° 0.3 mm 1 mps 687 mmHg 53%
    20:00 +19°C° 0.3 mm 1 mps 687 mmHg 57%
    21:00 +18°C° 0.3 mm 1 mps 687 mmHg 62%
    22:00 +16°C° 0.2 mm 1 mps 687 mmHg 64%
    23:00 +16°C° 0.2 mm 1 mps 687 mmHg 66%
    Show more